Home   Weather   60°27'N, 26°02'E   Past weeks
Flag for Finland

Past Weather in 60°27'N, 26°02'E, Finland — Yesterday and Last 2 Weeks

Now
36 °F

Passing clouds.


Feels Like: 31 °F
Forecast: 45 / 36 °F
Wind: 6 mph from North

Location: Helsinki-Vantaa

Current Time: Oct 15, 2019 at 12:35:11 am

Latest Report: Oct 14, 2019 at 11:50 pm


Visibility: N/A

Pressure: 30.01 "Hg

Humidity: 93%

Dew Point: 34 °F

Location of 60°27'N, 26°02'ELocation

Past Weather in 60°27'N, 26°02'E — Graph

°F

60°27'N, 26°02'E Temperature Yesterday

Maximum temperature yesterday: 43 °F (at 11:20 am)
Minimum temperature yesterday: 30 °F (at 2:50 am)
Average temperature yesterday: 38 °F

High & Low Weather Summary for the Past Weeks

 TemperatureHumidityPressure
High55 °F (Sep 30, 10:50 am)100% (Sep 30, 12:20 am)30.15 "Hg (Sep 30, 12:20 am)
Low30 °F (Oct 5, 12:50 am)54% (Oct 1, 1:20 pm)28.94 "Hg (Oct 1, 5:50 am)
Average41 °F90%29.61 "Hg
* Reported Sep 29 11:20 pm — Oct 14 11:20 pm, 60°27'N, 26°02'E. Weather by CustomWeather, © 2019

Note: Actual official high and low records may vary slightly from our data, if they occured in-between our weather recording intervals... More about our weather records

Advertising

60°27'N, 26°02'E Weather History for the Previous 24 Hours

Scroll right to see more
 ConditionsComfort  
Time TempWeatherWind HumidityBarometerVisibility
11:20 pm
Mon, Oct 14
36 °FPassing clouds.5 mph93%29.98 "HgN/A
10:50 pm36 °FPassing clouds.5 mph93%29.98 "HgN/A
10:20 pm34 °FPassing clouds.7 mph100%29.95 "HgN/A
9:50 pm36 °FPassing clouds.5 mph93%29.95 "HgN/A
9:20 pm36 °FPassing clouds.6 mph93%29.92 "HgN/A
8:50 pm36 °FPassing clouds.6 mph100%29.89 "HgN/A
8:20 pm37 °FPassing clouds.7 mph93%29.89 "HgN/A
7:50 pm37 °FPassing clouds.7 mph93%29.86 "HgN/A
7:20 pm39 °FPassing clouds.9 mph93%29.86 "HgN/A
6:50 pm39 °FPassing clouds.8 mph93%29.83 "HgN/A
6:20 pm39 °FPassing clouds.9 mph93%29.80 "HgN/A
5:50 pm41 °FPartly sunny.9 mph87%29.77 "HgN/A
5:20 pm41 °FPartly sunny.10 mph87%29.74 "HgN/A
4:50 pm41 °FPartly sunny.12 mph93%29.71 "HgN/A
4:20 pm41 °FPartly sunny.14 mph93%29.71 "HgN/A
3:50 pm41 °FLight rain. Partly sunny.15 mph93%29.71 "HgN/A
3:20 pm43 °FLight rain. Partly sunny.16 mph93%29.68 "HgN/A
2:50 pm41 °FRain. Partly sunny.14 mph100%29.68 "HgN/A
2:20 pm41 °FRain. Partly sunny.14 mph100%29.68 "Hg6 mi
1:50 pm41 °FRain. Partly sunny.14 mph100%29.68 "Hg3 mi
1:20 pm43 °FRain. Partly sunny.14 mph93%29.68 "Hg3 mi
12:50 pm43 °FRain. Partly sunny.13 mph93%29.68 "Hg3 mi
12:20 pm43 °FRain. Partly sunny.13 mph93%29.68 "Hg5 mi
11:50 am43 °FLight rain. Partly sunny.12 mph93%29.68 "HgN/A
11:20 am43 °FLight rain. Partly sunny.12 mph93%29.71 "HgN/A
10:50 am41 °FLight rain. Partly sunny.10 mph100%29.71 "Hg6 mi
10:20 am41 °FLight rain. Mostly cloudy.12 mph93%29.74 "Hg6 mi
9:50 am41 °FLight rain. Partly sunny.10 mph93%29.74 "HgN/A
9:20 am39 °FLight rain. Partly sunny.10 mph100%29.74 "HgN/A
8:50 am39 °FLight rain. Broken clouds.9 mph100%29.77 "HgN/A
8:20 am39 °FLight rain. Partly sunny.8 mph100%29.77 "HgN/A
7:50 am39 °FLight rain. Passing clouds.8 mph93%29.77 "HgN/A
7:20 am39 °FPassing clouds.8 mph93%29.80 "HgN/A
6:50 am39 °FPassing clouds.9 mph87%29.80 "HgN/A
6:20 am37 °FPassing clouds.8 mph93%29.80 "HgN/A
5:50 am37 °FPassing clouds.3 mph93%29.83 "HgN/A
5:20 am36 °FPassing clouds.3 mph100%29.83 "HgN/A
4:50 am34 °FPassing clouds.3 mph100%29.86 "HgN/A
4:20 am32 °FPassing clouds.5 mph100%29.86 "HgN/A
3:50 am32 °FPassing clouds.5 mph100%29.86 "HgN/A
3:20 am32 °FPassing clouds.3 mph100%29.86 "HgN/A
2:50 am30 °FPassing clouds.3 mph100%29.89 "HgN/A
2:20 am32 °FPassing clouds.3 mph93%29.89 "HgN/A
1:50 am32 °FPassing clouds.2 mph100%29.89 "HgN/A
1:20 am32 °FPassing clouds.2 mph100%29.89 "HgN/A
12:50 am34 °FPassing clouds.2 mph100%29.89 "HgN/A
12:20 am36 °FPassing clouds.3 mph93%29.89 "HgN/A
Weather by CustomWeather, © 2019

See weather overview